Location: Blue Sky Observatory
(43.1153°N, 70.9036°W)
Time: 00:01:48
(UTC-04:00)

Daily predictions for brighter satellites

Satellite Brightness Start Highest point End
(mag) Time Altitude Azimuth Time Altitude Azimuth Time Altitude Azimuth
Cosmos 1943 Rocket 4.2 03:24:25 23° E 03:24:25 23° E 03:27:33 10° NE
CENTAUR R/B 4.2 03:36:53 25° N 03:36:53 25° N 03:40:53 10° NNE
ADEOS II 3.8 03:34:46 10° NNE 03:38:25 29° ENE 03:38:25 29° ENE
Lacrosse 5 3.8 03:55:11 24° NNE 03:55:11 24° NNE 03:57:21 10° NE
Cosmos 2369 Rocket 3.1 04:01:40 42° NNE 04:01:40 42° NNE 04:05:21 10° NNE
CZ-3 R/B 4.4 03:53:06 44° SW 04:00:21 50° SSW 04:12:26 10° SE
Cosmos 1898 Rocket 4.5 04:04:53 44° ENE 04:04:53 44° ENE 04:08:53 10° NNE
Milstar 3 4.2 04:07:25 23° SSE 04:07:25 23° SSE 04:11:50 10° SE
CZ-4C R/B 3.2 04:06:25 34° NNW 04:09:47 65° NE 04:17:40 10° SE
Cosmos 2074 Rocket 3.9 04:13:40 10° N 04:20:00 86° E 04:26:18 10° S
Tiangong 2 4.5 04:23:06 12° E 04:23:06 12° E 04:23:24 10° E
Nadezhda 1 Rocket 4.4 04:16:08 20° SSE 04:20:36 61° E 04:26:53 10° NNE
Cosmos 44 4.2 04:22:50 41° ESE 04:22:50 41° ESE 04:26:09 10° SE
Cosmos 990 Rocket 4.4 04:30:44 49° SSE 04:31:45 59° ESE 04:36:51 10° NNE
Cosmos 2298 Rocket 4.3 04:32:13 57° SSE 04:33:06 67° ESE 04:38:25 10° NNE
Cosmos 44 Rocket 3.3 04:38:36 73° ESE 04:38:36 73° ESE 04:43:04 10° SE
Okean O Rocket 2.0 04:40:02 10° NNE 04:44:24 61° ESE 04:45:47 40° SSE
Cosmos 2154 Rocket 4.1 04:42:44 10° N 04:49:08 78° E 04:55:26 10° SSE
Cosmos 1656 Rocket 4.1 04:47:31 20° S 04:51:29 62° ESE 04:57:05 10° NNE
Cosmos 489 Rocket 4.3 04:50:33 53° SW 04:51:54 68° WNW 04:58:09 10° NNE
USA 215 4.3 04:47:49 10° NE 04:53:22 31° NNW 04:55:23 26° NW
GPS 2-04 Rocket1 4.4 04:56:10 21° SSE 04:56:10 21° SSE 04:58:08 10° SE
APEX 3.6 04:55:34 52° NNE 04:56:09 60° ENE 05:00:27 10° SE
CZ-4B R/B 3.4 04:55:23 10° NNE 05:00:50 73° ESE 05:06:22 10° S
Cosmos 1758 Rocket 3.7 04:58:48 14° S 05:02:39 76° E 05:07:10 10° NNE
Cosmos 1943 Rocket 2.4 05:05:59 45° WNW 05:06:29 46° WNW 05:11:51 10° NNE
Cosmos-2242 3.8 05:03:48 10° N 05:07:59 51° ENE 05:12:11 10° SSE
Landsat 4 4.2 05:05:46 10° SSE 05:09:29 59° ENE 05:13:12 10° N
NOSS 3-1 (C) 3.9 05:05:44 10° SSW 05:11:11 56° ESE 05:17:24 10° NE
Cosmos 1610 Rocket 4.4 05:05:36 10° NNW 05:11:38 56° W 05:17:35 10° SSW
USA 229 DEB 3.6 05:08:09 30° SW 05:11:49 76° NW 05:18:48 10° NE
USA 229 3.6 05:08:12 29° SW 05:11:55 77° NW 05:18:53 10° NE
Meteor 2-19 Rocket 4.5 05:07:14 10° NNW 05:13:13 54° W 05:19:11 10° SSW
NOSS 3-1 (A) 4.5 05:10:51 10° S 05:16:13 44° ESE 05:22:11 10° NE
ADEOS II 2.7 05:14:26 10° N 05:19:09 34° WNW 05:19:22 34° WNW
COSMO-SKYMED 1 4.3 05:15:56 10° SE 05:19:51 34° ENE 05:23:48 10° N
RUBIN 8/PSLV 4.5 05:16:45 10° N 05:21:02 62° WNW 05:23:34 23° SSW
Meteor 1-28 Rocket 3.9 05:19:00 10° SSE 05:22:43 57° ENE 05:26:29 10° N
USA 267 4.3 05:20:53 10° S 05:25:52 23° WSW 05:26:04 23° WSW
Cosmos 962 Rocket 4.3 05:23:08 10° NNW 05:29:17 73° W 05:35:20 10° S
Meteor PRIRODA 3.5 05:25:35 10° N 05:29:19 68° WNW 05:33:03 10° SSW
OAO 2 Rocket 4.4 05:28:14 23° SW 05:30:13 32° S 05:34:36 10° ESE
Lacrosse 5 3.6 05:34:23 16° NW 05:36:24 20° NNW 05:40:06 10° NNE
Cosmos 1470 4.3 05:38:46 19° SW 05:38:46 19° SW 05:40:09 10° SSW
IRS-1C Rocket 4.1 05:31:47 10° N 05:37:00 62° WNW 05:42:11 10° SSW
Cosmos 2341 Rocket 4.0 05:31:25 10° NNW 05:37:45 65° W 05:44:02 10° S
Cosmos 468 4.5 05:32:58 10° NNW 05:38:17 86° WSW 05:43:36 10° SSE
Cosmos 2181 Rocket 3.9 05:36:31 10° SSW 05:42:46 75° W 05:48:57 10° N
Cosmos 2227 Rocket 3.7 05:38:54 10° N 05:44:11 38° ENE 05:49:25 10° SE
Cosmos 2369 Rocket 3.7 05:43:29 17° WNW 05:44:26 18° NW 05:48:11 10° N
Meteor 2-14 Rocket 4.4 05:39:15 10° N 05:45:21 89° WSW 05:51:24 10° S
Cosmos 1340 Rocket 3.9 05:47:18 23° WNW 05:47:28 23° WNW 05:50:48 10° NNW
Meteor 1-31 Rocket 3.0 05:45:19 10° N 05:48:58 45° WNW 05:52:36 10° SW
Cosmos 1937 Rocket 4.4 05:47:18 21° W 05:49:37 28° WNW 05:54:12 10° N
Cosmos 372 Rocket 4.1 05:46:19 10° SSW 05:51:31 81° ESE 05:56:47 10° NNE
SJ-6F 4.4 05:47:47 10° N 05:51:49 57° WNW 05:55:48 10° SSW
Cosmos 1953 Rocket 4.2 05:49:50 10° SW 05:53:43 32° WNW 05:57:37 10° NNW
NOAA 6 4.2 05:49:23 10° NNE 05:54:36 80° ESE 05:59:46 10° S
Cosmos 1125 Rocket 3.5 05:51:24 10° SSW 05:56:39 83° WNW 06:01:59 10° NNE
Tiangong 2 2.0 05:55:26 22° WSW 05:56:53 34° SSW 05:59:50 10° SE
CZ-4C R/B 3.6 05:51:47 10° NW 05:58:11 33° WSW 06:05:04 10° S
SJ 16-02 1.3 05:55:02 10° SSW 05:59:25 90° W 06:03:51 10° NNE
Cosmos 1959 Rocket 4.5 05:56:32 10° N 06:02:53 78° W 06:09:06 10° S
Cosmos 1707 3.9 06:01:10 12° WSW 06:03:50 23° WNW 06:06:59 10° NNW
Meteor 2-5 Rocket 4.0 06:01:00 10° SSW 06:06:43 50° WNW 06:12:24 10° N
SKYMED 2 3.5 06:03:28 10° S 06:07:47 73° WSW 06:12:09 10° NNW
Cosmos 2219 3.3 06:03:07 10° NNW 06:08:40 56° WSW 06:14:08 10° S
MINOTAUR R/B 4.1 06:13:07 10° NNW 06:15:47 89° NNE 06:18:26 10° SSE
Meteor 2-1 Rocket 4.3 06:10:35 10° NNW 06:16:32 81° W 06:22:22 10° S
ERBS 2.3 06:13:14 10° NW 06:16:42 89° SW 06:20:10 10° SE
Okean O Rocket 3.3 06:17:52 10° NNW 06:20:17 15° WNW 06:22:40 10° W
Cosmos 1908 3.5 06:18:18 10° N 06:22:10 74° E 06:25:59 10° SSE
Cosmos 2297 Rocket 2.8 06:16:50 10° NNW 06:22:27 61° ENE 06:28:01 10° SE
Cosmos 1726 4.1 06:19:53 10° N 06:23:14 33° ENE 06:26:35 10° SE
EO 1 Del DPAF 4.0 06:21:06 10° SSW 06:24:31 31° W 06:27:57 10° NW
Cosmos 1048 Rocket 4.3 06:21:16 10° NNW 06:26:10 44° WSW 06:31:07 10° S
Shenzhou-11 Module 4.4 06:25:46 10° WSW 06:26:58 12° SW 06:28:09 10° S
Cosmos 2082 4.2 06:22:40 10° NNW 06:28:20 66° ENE 06:33:56 10° SE
Okean-O 3.1 06:28:11 10° N 06:32:20 39° WNW 06:36:27 10° SW
Cosmos 2366 rocket 4.2 06:28:53 10° NNW 06:34:45 48° W 06:40:37 10° SSW
